This is the latest recevied weather packets stored in our database for station/object N1NCB-3. If no packets are shown the sender has not sent any weather packets the latest 10 day(s).
| Time | Temp. | Humidity | Pressure | Rain* | Wind** | Luminosity | Snow |
|---|---|---|---|---|---|---|---|
| 1787786306 | 20.56° C | 76% | 1013.5 hPa | 0 mm | - | - | - |
| 1787786006 | 20.56° C | 75% | 1013.5 hPa | 0 mm | - | - | - |
| 1787785706 | 20.56° C | 74% | 1013.5 hPa | 0 mm | - | - | - |
| 1787785406 | 20.56° C | 73% | 1013.5 hPa | 0 mm | - | - | - |
| 1787785107 | 21.11° C | 73% | 1013.5 hPa | 0 mm | - | - | - |
| 1787784812 | 21.11° C | 72% | 1013.5 hPa | 0 mm | - | - | - |
| 1787784507 | 21.11° C | 70% | 1013.5 hPa | 0 mm | - | - | - |
| 1787784206 | 21.67° C | 68% | 1013.5 hPa | 0 mm | - | - | - |
| 1787783906 | 22.22° C | 67% | 1013.5 hPa | 0 mm | - | - | - |
| 1787783607 | 22.78° C | 65% | 1013.5 hPa | 0 mm | - | - | - |
| 1787783307 | 23.89° C | 63% | 1013.5 hPa | 0 mm | - | - | - |
| 1787783007 | 23.89° C | 61% | 1013.5 hPa | 0 mm | - | - | - |
| 1787782707 | 25° C | 58% | 1013.5 hPa | 0 mm | - | - | - |
| 1787782407 | 26.67° C | 53% | 1013.5 hPa | 0 mm | - | - | - |
| 1787782106 | 29.44° C | 49% | 1013.5 hPa | 0 mm | - | - | - |
| 1787781807 | 29.44° C | 49% | 1013.5 hPa | 0 mm | - | - | - |
| 1787781507 | 30° C | 48% | 1013.5 hPa | 0 mm | - | - | - |
| 1787781207 | 30.56° C | 46% | 1013.5 hPa | 0 mm | - | - | - |
| 1787780907 | 31.11° C | 45% | 1013.5 hPa | 0 mm | - | - | - |
| 1787780607 | 32.22° C | 45% | 1013.5 hPa | 0 mm | - | - | - |
| 1787780307 | 31.67° C | 45% | 1013.5 hPa | 0 mm | - | - | - |
| 1787780007 | 32.22° C | 44% | 1013.5 hPa | 0 mm | - | - | - |
| 1787779707 | 31.67° C | 46% | 1013.5 hPa | 0 mm | - | - | - |
| 1787779407 | 30.56° C | 47% | 1013.5 hPa | 0 mm | - | - | - |
| 1787779107 | 31.11° C | 46% | 1013.5 hPa | 0 mm | - | - | - |
* Rain latest hour (hover to see other rain measurements)
** Current wind speed in m/s (hover to see current wind gust speed)